Location: Knowlton
(51.2333°N, 1.2667°E)
Time: 10:26:32
(UTC+00:00)

Meteor 2-3 Rocket - Pass Details

Date: 18 April 2021
Orbit: 841 x 886 km, 81.2° (Epoch: 05 May)

Event Time Altitude Azimuth Distance (km) Brightness Sun altitude
Rises 20:36:38 0° 349° (NNW) 3,497 7.8 -14.4°
Reaches altitude 10° 20:39:08 10° 352° (N) 2,549 6.9 -14.7°
Maximum altitude 20:44:53 62° 73° (ENE) 984 3.9 -15.4°
Enters shadow 20:48:26 23° 148° (SSE) 1,754 4.8 -15.8°
